Date String (YYYY-MM-DD hh:mm:ss) UTC,Instrument flags,Ambient pressure (hPa),Sample flow (lpm),Bypass flow (lpm),Sample temperature (°C),Ambient temperature (°C),ASC tube jacket temperature (°C),LED temperature (°C),Box temperature (°C),Sample RH (%),Span deviation,Mass concentration (μg/m³),Mass concentration (μg/m³),Mass concentration (μg/m³)
DateTimeUTC,F1_M11,P_M11,Q1_M11,Q2_M11,T1_M11,T2_M11,T3_M11,T4_M11,T5_M11,U1_M11,ZSPAN_M11,X2_M11,X0_M11,X1_M11
2023-02-17 15:00:00,,0827.5,5.01,0.00,22.9,22.0,00.0,31.6,24.7,07.8,0000.0,0001.70,0003.72,0001.06
2023-02-17 15:01:00,,0827.5,5.00,0.00,22.9,21.7,00.0,31.6,24.6,07.9,0000.0,0001.68,0003.61,0001.06
2023-02-17 15:02:00,,0827.5,4.97,0.00,22.9,21.6,00.0,31.6,24.6,07.9,0000.0,0001.68,0003.65,0001.05
2023-02-17 15:03:00,,0827.5,4.99,0.00,22.8,21.5,00.0,31.6,24.6,07.9,0000.0,0001.74,0003.82,0001.07
2023-02-17 15:04:00,,0827.5,4.98,0.00,22.8,21.4,00.0,31.6,24.6,07.9,0000.0,0001.76,0003.84,0001.07
2023-02-17 15:05:00,,0827.5,5.05,0.00,22.8,21.3,00.0,31.6,24.5,07.9,0000.0,0001.83,0004.07,0001.08
2023-02-17 15:06:00,,0827.5,5.00,0.00,22.8,21.3,00.0,31.6,24.5,07.9,0000.0,0001.75,0004.50,0001.09
2023-02-17 15:07:00,,0827.5,5.02,0.00,22.8,21.2,00.0,31.6,24.5,07.8,0000.0,0001.74,0004.42,0001.10
2023-02-17 15:08:00,,0827.5,4.98,0.00,22.8,21.2,00.0,31.6,24.5,07.8,0000.0,0001.75,0004.40,0001.11
2023-02-17 15:09:00,,0827.7,4.98,0.00,22.8,21.1,00.0,31.6,24.5,07.4,0000.0,0001.74,0004.38,0001.12
2023-02-17 15:10:00,,0827.5,5.01,0.00,22.7,21.1,00.0,31.6,24.5,07.8,0000.0,0001.75,0004.41,0001.13
2023-02-17 15:11:00,,0827.5,5.01,0.00,22.7,21.1,00.0,31.6,24.4,08.0,0000.0,0001.76,0004.89,0001.13
2023-02-17 15:12:00,,0827.5,4.97,0.00,22.7,21.0,00.0,31.6,24.5,08.0,0000.0,0001.74,0005.17,0001.13
2023-02-17 15:13:00,,0827.6,4.99,0.00,22.7,21.0,00.0,31.6,24.4,08.0,0000.0,0001.79,0005.24,0001.14
2023-02-17 15:14:00,,0827.5,4.98,0.00,22.7,21.0,00.0,31.6,24.4,07.9,0000.0,0001.78,0005.27,0001.12
2023-02-17 15:15:00,,0827.5,4.99,0.00,22.7,21.0,00.0,31.6,24.4,07.9,0000.0,0001.74,0005.21,0001.11
2023-02-17 15:16:00,,0827.5,5.01,0.00,22.7,21.0,00.0,31.6,24.4,07.7,0000.0,0001.69,0004.90,0001.11
2023-02-17 15:17:00,,0827.5,4.99,0.00,22.7,21.0,00.0,31.6,24.4,07.8,0000.0,0001.61,0003.77,0001.10
2023-02-17 15:18:00,,0827.8,5.01,0.00,22.6,20.9,00.0,31.5,24.4,07.9,0000.0,0001.59,0003.54,0001.09
2023-02-17 15:19:00,,0827.6,4.97,0.00,22.6,20.9,00.0,31.5,24.4,07.9,0000.0,0001.59,0003.55,0001.09
2023-02-17 15:20:00,,0827.5,4.99,0.00,22.6,21.0,00.0,31.5,24.3,08.0,0000.0,0001.58,0003.62,0001.07
2023-02-17 15:21:00,,0827.5,5.01,0.00,22.6,21.6,00.0,31.5,24.5,08.0,0000.0,0001.55,0003.53,0001.06
2023-02-17 15:22:00,,0827.6,4.99,0.00,22.8,23.2,00.0,31.5,24.8,08.0,0000.0,0001.51,0003.35,0001.03
2023-02-17 15:23:00,,0827.6,5.00,0.00,22.9,23.9,00.0,31.5,25.0,08.0,0000.0,0001.48,0002.67,0001.02
2023-02-17 15:24:00,,0827.6,4.92,0.00,23.0,23.4,00.0,31.6,25.0,07.8,0000.0,0001.49,0002.76,0001.01
2023-02-17 15:25:00,,0827.7,5.00,0.00,23.0,23.0,00.0,31.6,24.9,07.7,0000.0,0001.41,0002.50,0001.00
2023-02-17 15:26:00,,0827.6,4.99,0.00,23.0,22.6,00.0,31.6,24.9,07.7,0000.0,0001.41,0002.60,0001.01
2023-02-17 15:27:00,,0827.6,4.99,0.00,23.0,22.3,00.0,31.7,24.8,08.0,0000.0,0001.44,0002.86,0001.01
2023-02-17 15:28:00,,0827.6,5.00,0.00,23.0,22.1,00.0,31.7,24.8,08.2,0000.0,0001.44,0002.87,0001.01
2023-02-17 15:29:00,,0827.7,4.98,0.00,23.0,22.0,00.0,31.7,24.8,08.2,0000.0,0001.46,0002.93,0001.01
2023-02-17 15:30:00,,0827.7,4.98,0.00,23.0,21.8,00.0,31.7,24.8,08.2,0000.0,0001.45,0002.94,0001.02
2023-02-17 15:31:00,,0827.7,4.98,0.00,23.0,21.8,00.0,31.7,24.8,08.2,0000.0,0001.47,0002.93,0001.03
2023-02-17 15:32:00,,0827.7,5.01,0.00,23.0,21.8,00.0,31.8,24.8,08.0,0000.0,0001.48,0002.98,0001.03
2023-02-17 15:33:00,,0827.7,5.01,0.00,23.0,21.7,00.0,31.8,24.8,08.0,0000.0,0001.53,0002.99,0001.07
2023-02-17 15:34:00,,0827.7,5.00,0.00,23.0,21.6,00.0,31.8,24.7,07.9,0000.0,0001.59,0003.08,0001.10
2023-02-17 15:35:00,,0827.7,5.00,0.00,23.0,21.6,00.0,31.8,24.7,07.7,0000.0,0001.58,0003.06,0001.12
2023-02-17 15:36:00,,0827.7,5.00,0.00,23.0,21.6,00.0,31.8,24.7,07.7,0000.0,0001.59,0003.16,0001.13
2023-02-17 15:37:00,,0827.7,4.99,0.00,22.9,21.5,00.0,31.8,24.7,08.1,0000.0,0001.75,0003.25,0001.27
2023-02-17 15:38:00,,0827.7,5.01,0.00,22.9,21.5,00.0,31.8,24.7,08.0,0000.0,0001.98,0003.35,0001.47
2023-02-17 15:39:00,,0827.8,4.98,0.00,22.9,21.5,00.0,31.8,24.7,07.9,0000.0,0002.21,0004.62,0001.66
2023-02-17 15:40:00,,0827.8,4.98,0.00,22.9,21.5,00.0,31.8,24.7,07.9,0000.0,0002.37,0004.94,0001.82
2023-02-17 15:41:00,,0827.8,5.00,0.00,22.9,21.5,00.0,31.8,24.7,07.8,0000.0,0002.57,0005.24,0001.99
2023-02-17 15:42:00,,0827.8,4.97,0.00,22.9,21.5,00.0,31.8,24.7,07.8,0000.0,0002.75,0006.65,0002.16
2023-02-17 15:43:00,,0827.7,4.98,0.00,22.9,21.5,00.0,31.8,24.7,08.0,0000.0,0002.91,0006.80,0002.32
2023-02-17 15:44:00,,0827.7,5.03,0.00,22.9,21.5,00.0,31.8,24.7,08.0,0000.0,0003.01,0006.88,0002.41
2023-02-17 15:45:00,,0827.8,5.00,0.00,22.9,21.5,00.0,31.8,24.7,07.8,0000.0,0003.00,0006.81,0002.41
2023-02-17 15:46:00,,0827.9,4.99,0.00,22.9,21.5,00.0,31.7,24.7,08.2,0000.0,0003.08,0006.80,0002.52
2023-02-17 15:47:00,,0827.9,5.00,0.00,22.9,21.5,00.0,31.7,24.7,07.9,0000.0,0003.20,0007.09,0002.64
2023-02-17 15:48:00,,0827.8,5.00,0.00,22.9,21.5,00.0,31.7,24.7,07.9,0000.0,0003.19,0007.11,0002.60
2023-02-17 15:49:00,,0827.8,5.00,0.00,22.9,21.5,00.0,31.7,24.7,08.0,0000.0,0003.11,0006.89,0002.49
2023-02-17 15:50:00,,0827.8,5.00,0.00,22.9,21.5,00.0,31.7,24.7,08.0,0000.0,0003.02,0005.86,0002.39
2023-02-17 15:51:00,,0827.9,5.00,0.00,22.9,21.5,00.0,31.7,24.7,08.0,0000.0,0003.00,0006.41,0002.31
2023-02-17 15:52:00,,0827.8,5.02,0.00,22.9,21.5,00.0,31.7,24.7,08.0,0000.0,0002.94,0007.40,0002.23
2023-02-17 15:53:00,,0827.9,5.00,0.00,22.9,21.5,00.0,31.7,24.7,08.1,0000.0,0002.87,0006.23,0002.16
2023-02-17 15:54:00,,0827.9,5.00,0.00,22.9,21.5,00.0,31.7,24.7,08.1,0000.0,0002.81,0006.49,0002.11
2023-02-17 15:55:00,,0827.8,4.99,0.00,22.9,21.5,00.0,31.7,24.7,08.0,0000.0,0002.84,0007.25,0002.09
2023-02-17 15:56:00,,0827.9,5.01,0.00,22.9,21.5,00.0,31.7,24.7,08.0,0000.0,0002.94,0008.95,0002.15
2023-02-17 15:57:00,,0827.8,4.99,0.00,22.9,21.5,00.0,31.7,24.7,08.1,0000.0,0002.96,0009.16,0002.15
2023-02-17 15:58:00,,0827.9,4.99,0.00,22.9,21.6,00.0,31.7,24.7,08.2,0000.0,0002.90,0009.18,0002.11
2023-02-17 15:59:00,,0827.9,4.99,0.00,22.9,21.6,00.0,31.7,24.7,08.3,0000.0,0002.91,0009.92,0002.10
